Total_Precipitation_Accumulation
0.09 0.09 0.10 0.08 0.09 0.09 0.11 0.17 0.23 0.20 0.11 0.06 0.05 0.08 0.16 0.22 0.25 0.28 0.26 0.14 0.09 0.07 0.07 0.09 0.12 0.16 0.20 0.22 0.23 0.24 0.22 0.21 0.24 0.32 0.44 0.54 0.61 0.65
0.11 0.10 0.11 0.10 0.11 0.12 0.14 0.16 0.22 0.29 0.24 0.11 0.07 0.10 0.18 0.22 0.29 0.31 0.27 0.23 0.16 0.11 0.11 0.22 0.32 0.32 0.33 0.31 0.28 0.29 0.31 0.30 0.29 0.32 0.39 0.47 0.58 0.67
0.09 0.10 0.10 0.11 0.12 0.12 0.15 0.20 0.24 0.31 0.33 0.15 0.10 0.15 0.24 0.29 0.33 0.34 0.30 0.28 0.24 0.22 0.18 0.27 0.53 0.72 0.65 0.53 0.45 0.40 0.39 0.41 0.40 0.41 0.46 0.52 0.55 0.61
0.09 0.10 0.09 0.09 0.11 0.12 0.15 0.18 0.21 0.26 0.34 0.27 0.17 0.20 0.27 0.35 0.43 0.44 0.39 0.34 0.31 0.35 0.32 0.32 0.49 0.89 0.99 0.77 0.67 0.56 0.48 0.47 0.47 0.49 0.52 0.54 0.54 0.57
0.09 0.11 0.10 0.11 0.13 0.14 0.18 0.20 0.22 0.25 0.35 0.42 0.33 0.28 0.32 0.42 0.54 0.52 0.43 0.42 0.34 0.34 0.36 0.39 0.53 1.05 1.41 1.19 0.92 0.81 0.65 0.56 0.51 0.52 0.56 0.58 0.54 0.50
0.07 0.10 0.12 0.14 0.18 0.20 0.21 0.24 0.29 0.34 0.36 0.40 0.38 0.36 0.39 0.45 0.56 0.62 0.51 0.44 0.36 0.27 0.33 0.42 0.57 1.03 1.58 1.78 1.43 1.15 0.93 0.75 0.62 0.54 0.52 0.51 0.46 0.40
0.07 0.10 0.10 0.14 0.19 0.23 0.25 0.31 0.40 0.46 0.44 0.43 0.41 0.41 0.44 0.51 0.54 0.55 0.52 0.42 0.30 0.26 0.29 0.36 0.60 1.22 1.76 2.09 1.99 1.48 1.09 0.88 0.71 0.60 0.54 0.48 0.43 0.37
0.11 0.10 0.07 0.07 0.10 0.15 0.23 0.30 0.40 0.47 0.51 0.53 0.51 0.44 0.40 0.44 0.48 0.53 0.51 0.47 0.36 0.25 0.27 0.38 0.72 1.46 2.02 2.31 2.30 1.68 1.15 0.94 0.83 0.73 0.67 0.60 0.51 0.43
0.13 0.10 0.07 0.05 0.09 0.14 0.18 0.22 0.27 0.38 0.52 0.62 0.60 0.46 0.45 0.52 0.60 0.63 0.51 0.49 0.46 0.31 0.32 0.48 0.85 1.43 2.00 2.51 2.47 1.83 1.34 1.08 0.97 0.88 0.80 0.70 0.59 0.48
0.09 0.09 0.10 0.11 0.13 0.15 0.16 0.22 0.32 0.40 0.46 0.49 0.56 0.56 0.61 0.58 0.55 0.54 0.49 0.50 0.43 0.27 0.31 0.56 0.89 1.37 1.85 2.26 2.34 1.82 1.40 1.17 1.06 0.94 0.82 0.71 0.60 0.51
0.05 0.07 0.10 0.14 0.14 0.20 0.27 0.38 0.54 0.68 0.67 0.66 0.70 0.80 0.84 0.70 0.51 0.46 0.51 0.52 0.41 0.26 0.30 0.52 0.81 1.13 1.50 1.81 1.89 1.70 1.39 1.21 1.06 0.92 0.78 0.66 0.58 0.53
0.04 0.07 0.12 0.18 0.19 0.30 0.39 0.54 0.74 0.86 0.76 0.69 0.74 0.85 0.78 0.70 0.68 0.62 0.58 0.50 0.40 0.34 0.33 0.47 0.64 0.81 1.22 1.49 1.39 1.23 1.16 1.18 1.11 0.99 0.84 0.66 0.50 0.42
0.08 0.13 0.18 0.25 0.25 0.37 0.54 0.68 0.90 0.98 0.83 0.68 0.61 0.60 0.59 0.58 0.57 0.59 0.51 0.43 0.38 0.37 0.36 0.46 0.60 0.71 0.89 1.15 1.24 1.16 1.00 0.97 0.96 1.01 1.00 0.82 0.57 0.43
0.16 0.24 0.28 0.31 0.34 0.51 0.65 0.83 1.08 1.15 0.86 0.61 0.45 0.41 0.42 0.47 0.48 0.43 0.36 0.31 0.31 0.34 0.37 0.43 0.58 0.72 0.71 0.74 1.00 1.09 1.05 1.03 0.95 0.93 0.94 0.91 0.75 0.66
0.20 0.36 0.39 0.36 0.51 0.73 0.92 1.07 1.20 1.12 0.83 0.57 0.42 0.37 0.34 0.35 0.36 0.36 0.33 0.28 0.26 0.29 0.32 0.37 0.49 0.62 0.61 0.60 0.75 0.84 1.01 1.23 1.13 1.04 0.94 0.82 0.73 0.65
0.17 0.32 0.45 0.49 0.66 0.90 1.07 1.14 1.15 1.06 0.84 0.60 0.45 0.39 0.34 0.33 0.33 0.31 0.30 0.26 0.27 0.34 0.35 0.37 0.44 0.51 0.60 0.60 0.65 0.75 0.86 1.26 1.33 1.11 0.96 0.90 0.83 0.73
0.18 0.24 0.32 0.45 0.64 0.83 0.94 0.98 0.95 0.90 0.80 0.61 0.48 0.43 0.39 0.37 0.36 0.32 0.29 0.25 0.27 0.33 0.38 0.42 0.46 0.46 0.51 0.57 0.67 0.77 0.90 1.11 1.18 0.98 0.80 0.86 0.92 0.81
0.21 0.29 0.42 0.55 0.70 0.82 0.88 0.86 0.81 0.75 0.67 0.56 0.49 0.44 0.40 0.37 0.36 0.31 0.25 0.23 0.26 0.28 0.32 0.34 0.32 0.29 0.34 0.51 0.73 0.77 0.80 0.94 0.96 0.79 0.59 0.64 0.85 0.87
0.22 0.35 0.49 0.62 0.74 0.78 0.79 0.76 0.72 0.66 0.56 0.49 0.44 0.40 0.36 0.33 0.30 0.26 0.23 0.22 0.22 0.21 0.22 0.21 0.17 0.12 0.16 0.46 0.77 0.84 0.73 0.72 0.69 0.64 0.54 0.50 0.68 0.83
0.27 0.41 0.52 0.59 0.67 0.71 0.69 0.68 0.64 0.57 0.49 0.43 0.42 0.39 0.33 0.28 0.25 0.22 0.20 0.17 0.15 0.13 0.13 0.13 0.14 0.12 0.12 0.28 0.64 0.88 0.78 0.56 0.45 0.45 0.45 0.45 0.57 0.66
0.32 0.41 0.47 0.51 0.55 0.58 0.57 0.54 0.52 0.48 0.43 0.39 0.37 0.37 0.35 0.28 0.22 0.17 0.14 0.12 0.10 0.09 0.11 0.15 0.17 0.13 0.08 0.09 0.30 0.56 0.64 0.59 0.41 0.33 0.32 0.34 0.37 0.33
0.33 0.40 0.43 0.42 0.41 0.43 0.41 0.38 0.37 0.36 0.34 0.34 0.34 0.32 0.30 0.24 0.18 0.13 0.10 0.09 0.08 0.08 0.08 0.10 0.10 0.08 0.06 0.08 0.19 0.34 0.41 0.38 0.34 0.32 0.29 0.22 0.17 0.19
0.31 0.33 0.35 0.36 0.32 0.30 0.30 0.30 0.30 0.30 0.29 0.30 0.29 0.27 0.24 0.19 0.14 0.10 0.07 0.05 0.04 0.04 0.05 0.06 0.06 0.05 0.05 0.06 0.10 0.16 0.18 0.17 0.14 0.17 0.27 0.27 0.17 0.17